Dewpoint
51 50 50 50 50 50 50 50 50 51 51 50 50 50 50 50 50 53 57 59 55 49 48 47 47 45 43 44 47 44 43 46 44 36 35 37 35 37 35 32 34 31 34 33 33 32 29 33 35 35 37 41 41 42
50 50 49 49 49 50 50 50 50 50 50 50 50 50 50 50 50 51 53 59 59 54 49 54 52 51 47 46 46 46 44 41 45 42 38 38 35 36 34 32 32 31 34 34 32 33 36 37 37 40 40 41 42 41
48 48 49 49 49 49 49 49 49 49 50 50 50 50 50 50 50 52 53 57 55 41 49 50 49 50 51 51 52 48 50 45 44 47 46 37 34 40 34 35 37 36 36 36 35 34 35 37 39 41 41 41 41 41
48 48 48 48 48 48 48 48 48 49 49 49 49 49 49 50 50 51 53 56 54 44 34 44 49 49 50 50 51 51 50 50 50 50 39 36 34 41 37 36 36 37 37 36 35 37 37 38 40 40 40 40 41 41
47 47 48 48 47 47 48 48 48 48 48 49 49 49 49 50 50 51 53 55 56 49 38 40 45 46 48 49 48 49 49 49 49 41 36 36 42 39 41 39 37 38 36 36 35 37 40 39 39 40 39 41 39 33
46 47 47 47 47 47 47 47 48 48 48 48 49 49 49 49 50 50 45 50 52 53 40 34 45 44 45 46 46 46 48 49 49 45 39 43 44 39 34 34 36 36 36 38 37 37 37 38 36 38 39 39 30 28
46 47 47 46 46 46 47 47 47 48 48 48 48 48 49 49 50 46 42 48 50 52 35 36 39 42 41 43 44 45 47 47 47 44 39 39 39 41 34 35 37 38 37 36 36 37 37 36 37 36 33 28 29 29
45 47 47 46 46 46 46 46 47 47 48 48 48 48 48 48 48 44 47 48 49 43 38 35 34 37 41 42 41 44 43 41 40 40 38 37 40 37 34 36 35 34 32 31 34 35 34 31 29 27 26 27 28 31
45 45 46 46 45 45 45 46 46 47 47 47 47 47 46 44 41 43 47 47 47 41 34 32 33 33 39 40 39 38 39 33 40 35 38 38 37 34 36 34 32 32 32 34 33 29 28 27 26 26 26 27 29 32
45 45 45 45 45 45 45 45 46 46 46 46 45 42 35 41 46 46 43 37 35 34 34 32 39 37 38 38 36 36 36 33 32 36 38 37 35 36 35 33 32 32 28 27 31 30 30 29 26 27 27 28 33 33
45 45 45 45 45 45 45 46 46 46 44 44 42 37 44 45 44 40 34 33 33 32 34 36 37 37 40 35 34 36 33 34 31 33 36 34 31 31 30 30 29 27 26 26 25 25 25 27 27 28 31 34 34 34
46 45 45 45 45 45 45 45 45 42 43 43 43 44 44 41 38 34 32 35 33 31 37 36 36 37 37 41 37 35 32 34 27 34 32 28 29 26 28 27 24 24 24 24 25 24 24 25 29 33 34 36 34 34
45 44 44 44 44 44 43 42 42 43 43 42 40 37 37 36 30 28 26 32 32 36 35 36 34 37 37 37 34 32 30 27 35 31 26 29 30 28 24 22 23 24 33 32 26 24 28 29 32 33 33 34 34 32
43 43 43 43 43 43 42 42 43 41 39 38 33 28 31 28 28 28 31 33 34 35 36 37 36 36 36 32 32 28 30 34 28 24 25 32 27 25 27 28 27 26 31 30 31 32 32 33 33 33 33 32 30 29
43 43 43 43 43 43 43 42 41 39 39 34 33 26 29 32 36 34 36 36 36 36 37 36 35 34 33 30 31 30 25 22 24 24 32 32 33 32 30 30 27 33 31 30 30 31 32 33 33 32 33 31 32 31
43 42 40 43 43 43 41 40 38 39 35 34 32 30 33 33 32 32 33 34 37 36 36 36 31 25 24 27 24 23 21 17 26 36 32 29 30 31 29 28 32 31 31 30 30 32 32 33 33 33 33 33 32 32
40 36 41 41 42 42 41 36 38 33 34 30 30 36 36 34 33 34 34 35 37 34 30 30 22 21 25 22 19 21 24 29 32 32 29 30 29 29 27 28 30 30 31 30 31 32 33 35 34 32 31 32 31 31
37 39 41 41 40 38 36 38 34 31 28 28 27 32 31 34 34 34 34 36 36 30 26 24 23 21 19 16 19 26 29 30 30 29 28 27 27 27 28 29 28 28 30 31 32 34 34 33 33 32 32 30 31 31
38 37 41 41 37 35 33 35 35 27 28 28 28 29 32 36 36 34 36 36 36 33 31 29 24 22 23 24 27 30 31 31 28 26 27 28 28 28 27 27 28 30 29 30 33 33 32 34 33 34 30 29 30 32
39 40 40 40 38 34 32 32 33 29 26 27 28 29 30 30 36 34 34 33 33 33 28 25 23 25 27 27 27 28 28 28 28 28 27 27 28 28 28 29 29 29 30 31 32 32 32 32 33 33 32 33 34 34
37 38 39 38 38 36 32 28 26 26 25 23 25 28 28 34 33 33 31 34 30 26 22 25 27 28 28 28 29 30 29 29 28 30 29 28 29 30 29 29 30 30 32 32 32 33 32 32 33 32 33 33 33 33
38 38 38 37 34 34 31 30 26 29 26 25 26 27 29 29 30 32 32 30 27 27 27 27 27 27 27 27 28 29 30 29 28 28 28 29 29 30 30 31 32 32 33 33 33 33 33 33 34 34 32 32 32 31
37 37 35 34 29 28 28 31 28 25 24 25 26 24 25 27 28 27 27 25 27 28 28 28 28 30 28 28 27 27 27 27 28 29 31 32 32 33 32 32 32 32 32 32 34 33 33 34 33 32 32 32 31 29
38 33 31 28 28 25 31 26 28 25 26 23 22 19 20 26 28 26 22 25 26 27 26 26 27 26 26 26 26 26 27 30 30 32 33 32 32 32 32 32 34 34 34 34 34 34 33 32 32 31 32 30 29 28
29 28 30 25 30 26 23 24 24 22 20 21 21 21 22 28 21 19 20 21 27 29 30 30 29 28 27 28 28 29 31 30 31 32 33 32 33 32 31 33 33 34 34 33 33 32 32 32 32 30 30 30 28 28
24 28 25 24 25 23 22 18 20 21 22 21 21 23 31 23 18 19 16 29 36 32 33 34 34 31 28 27 27 28 31 35 33 31 30 31 32 32 32 32 32 34 36 34 33 32 32 32 31 30 30 29 27 26
24 24 28 26 23 23 26 28 25 24 20 18 20 22 20 18 17 16 21 26 28 36 35 35 34 30 29 29 31 35 36 34 33 30 31 31 30 32 33 32 31 35 36 34 33 33 32 32 31 30 28 30 29 28
25 28 23 27 26 27 24 23 21 19 20 21 22 19 18 19 16 23 29 34 39 36 36 36 36 34 34 35 35 33 33 32 32 32 32 31 31 33 34 33 34 30 35 34 33 32 33 33 31 30 30 28 30 30
26 29 29 23 25 25 25 23 24 23 22 22 22 20 22 22 29 30 30 34 38 36 33 33 34 34 35 34 33 32 33 33 30 28 26 27 28 33 34 33 32 32 33 32 32 32 33 33 32 31 32 30 30 29
25 31 24 23 22 21 25 28 28 32 30 30 29 29 29 30 32 34 34 36 34 32 33 32 32 31 28 29 29 30 33 33 32 30 27 27 28 31 32 32 32 32 32 32 31 29 29 30 29 29 28 27 27 26
30 31 26 26 24 27 29 32 33 33 33 31 32 30 29 30 34 37 34 34 33 31 29 28 28 31 29 29 29 28 28 32 30 29 29 30 31 32 32 32 32 32 32 31 29 29 28 28 29 27 26 24 25 23
30 26 24 22 25 31 32 31 32 30 30 30 30 31 31 30 28 29 25 25 25 25 27 26 25 27 28 29 31 31 28 28 26 26 25 29 32 32 32 32 32 32 31 30 29 29 27 26 26 24 23 22 21 21
27 28 25 24 24 24 27 28 27 25 27 27 27 28 29 29 26 23 23 24 23 23 22 23 25 27 28 27 28 28 27 25 23 22 21 21 20 22 26 30 31 30 29 28 27 27 25 23 23 24 23 23 21 19
Lifted_Index
4 3 3 3 3 3 2 2 2 2 2 2 2 3 3 3 3 3 1 0 -0 0 1 0 -0 -0 -0 0 0 1 1 2 2 3 4 4 4 4 4 4 3 3 3 2 2 2 2 1 0 0 0 1 1 1
5 4 4 3 3 3 3 3 3 3 2 2 2 2 3 3 3 2 1 0 0 1 1 1 0 0 0 0 1 1 1 1 2 2 3 4 4 4 4 4 4 3 2 2 2 2 2 1 1 1 1 1 1 2
6 6 5 4 4 4 3 3 3 3 3 3 3 3 3 3 3 2 2 1 1 2 2 2 2 1 1 1 1 1 1 1 1 1 2 3 4 4 4 4 4 3 2 2 2 2 2 2 1 1 1 1 2 2
8 7 7 6 5 5 4 4 3 3 3 3 3 3 3 3 3 3 2 2 2 2 3 4 3 3 2 1 1 1 1 0 0 1 2 3 3 4 4 4 4 3 2 2 3 3 2 2 2 1 1 1 2 3
9 9 8 7 7 6 5 5 4 4 3 3 3 3 3 3 3 3 3 3 2 3 3 4 5 4 3 2 1 1 0 0 0 1 2 2 3 3 4 4 4 3 2 2 2 2 2 2 2 2 2 2 3 4
10 9 9 9 8 8 7 6 5 4 4 3 3 3 3 3 3 3 3 3 3 3 3 4 5 5 4 3 2 1 0 0 0 1 2 2 2 2 3 4 3 2 2 2 2 2 2 2 2 2 3 3 4 5
9 9 9 9 9 9 8 7 6 5 4 4 3 3 2 2 3 3 4 4 4 3 3 3 4 5 5 4 3 2 1 1 1 1 1 2 2 2 2 3 3 2 2 2 2 2 2 3 3 3 4 4 4 5
9 9 9 9 9 9 9 8 8 6 5 4 3 2 2 2 2 3 4 5 4 3 2 3 3 4 5 4 3 3 2 1 1 2 2 2 2 2 2 3 2 2 2 2 3 3 3 3 4 4 4 4 4 4
7 7 8 8 9 9 9 9 8 7 6 5 4 2 2 2 3 4 4 4 4 3 3 3 3 3 4 4 4 3 3 3 3 3 3 2 3 3 2 2 2 2 3 3 3 3 4 4 4 4 4 4 4 4
7 7 7 7 8 8 8 8 8 7 7 5 4 3 3 4 5 5 4 4 4 4 4 3 3 3 3 4 4 4 4 4 4 4 3 3 3 3 3 3 3 3 4 4 4 4 4 4 4 4 4 4 4 4
6 6 6 6 7 7 7 8 7 7 6 6 5 4 5 5 5 5 4 4 4 4 4 4 3 3 4 4 4 5 5 5 5 4 4 4 4 4 3 3 4 4 5 5 5 4 4 4 3 3 3 3 4 4
6 6 6 6 6 7 7 7 7 7 6 6 6 6 6 6 5 4 4 4 4 4 4 4 4 5 5 5 5 5 5 5 5 5 5 4 4 3 4 4 5 5 5 5 5 5 4 4 4 4 4 4 4 4
5 6 6 6 6 7 7 7 7 7 6 6 6 6 6 5 5 4 4 4 4 5 5 5 5 5 6 6 6 6 5 5 5 5 4 3 3 2 3 4 5 5 5 5 5 5 4 4 4 4 4 4 3 3
5 5 6 6 7 7 7 7 7 7 7 7 7 6 6 6 6 5 5 5 5 5 5 5 6 6 6 6 6 6 5 5 5 4 3 2 1 2 3 4 4 4 4 4 4 4 4 4 3 3 3 3 3 3
5 5 5 6 6 7 7 7 7 7 7 7 7 7 7 7 6 5 5 5 5 5 5 5 6 6 6 6 5 5 5 4 4 3 2 1 1 2 2 3 3 3 4 4 4 3 3 3 3 3 3 3 3 3
5 5 5 5 6 6 7 7 6 6 6 6 6 6 6 6 5 5 4 4 4 5 5 5 5 5 5 5 5 5 4 3 2 2 1 2 2 2 2 3 3 3 3 3 3 3 3 3 3 3 3 3 4 4
4 4 4 4 5 5 6 5 5 5 5 5 5 5 5 4 4 4 4 4 4 5 5 5 5 5 4 4 4 4 3 2 2 2 2 2 2 2 3 3 3 3 2 2 2 2 3 3 3 3 3 4 5 5
4 4 4 4 4 4 5 4 4 4 4 5 5 4 4 4 4 4 4 4 4 4 4 4 4 4 4 4 4 3 2 2 2 2 2 2 2 3 3 3 3 3 3 2 2 2 3 3 3 3 4 5 5 6
4 4 4 4 4 4 4 4 4 4 4 4 4 4 4 3 3 3 4 3 3 4 4 4 4 4 4 3 3 3 2 2 2 2 2 3 3 3 3 3 3 3 2 2 2 3 3 3 3 4 5 5 6 6
4 4 4 4 4 4 4 4 4 4 4 4 4 4 3 3 3 3 3 3 3 4 4 4 4 4 3 3 3 2 2 2 2 2 2 3 3 3 3 3 2 2 2 2 2 3 3 3 3 4 5 6 6 6
4 4 4 4 4 4 4 4 4 4 4 4 4 3 3 3 3 3 3 3 4 4 4 4 4 3 3 3 2 2 2 2 2 2 2 3 3 2 2 2 2 1 1 2 2 2 2 3 4 5 5 6 6 6
4 4 4 4 4 4 4 4 4 4 4 3 3 3 3 2 2 2 3 3 3 3 3 3 3 3 2 2 2 2 2 2 2 2 2 2 2 2 2 1 1 1 1 1 2 2 3 3 4 5 6 6 6 6
4 4 4 4 4 4 4 3 3 3 3 3 3 2 2 2 2 3 3 3 3 2 2 2 2 2 2 1 1 1 1 1 1 1 1 1 1 1 2 2 1 1 1 2 2 3 3 4 5 5 6 6 6 6
3 3 3 3 3 3 3 3 3 2 2 2 2 2 2 2 2 3 3 3 2 1 1 1 1 1 1 1 1 1 1 1 1 1 1 1 1 1 2 2 2 2 2 2 3 3 4 4 5 5 5 5 5 5
2 2 2 3 2 2 2 2 2 2 2 2 2 2 2 2 2 3 3 2 1 1 1 1 1 1 0 1 1 1 0 0 0 1 1 1 1 1 2 2 2 2 3 3 3 4 4 4 5 5 5 5 5 5
2 2 2 2 2 2 2 2 2 1 2 2 2 2 2 2 2 2 2 1 0 0 0 0 0 0 1 1 1 1 0 1 1 1 2 2 1 1 2 2 2 3 3 3 4 4 4 4 4 4 5 5 5 6
2 2 2 2 1 1 1 1 1 1 1 1 1 1 1 1 2 2 1 0 0 0 0 0 0 1 1 1 1 1 1 1 2 2 2 2 2 2 2 2 2 3 3 3 4 4 4 4 4 4 5 5 6 6
2 2 1 1 1 1 1 1 1 1 1 1 1 1 1 1 1 1 0 0 0 1 1 1 1 1 1 1 1 2 2 2 2 2 3 2 2 2 2 2 3 3 3 3 3 3 3 4 4 4 5 5 6 6
2 1 1 1 1 1 1 1 1 1 1 1 1 1 1 1 1 1 1 1 1 1 1 1 1 2 2 2 2 2 2 2 3 3 3 2 2 2 3 3 3 3 3 3 3 3 3 3 4 4 4 5 6 6
1 1 1 1 1 1 1 1 1 1 1 1 1 1 1 1 1 1 1 1 1 2 2 2 2 2 2 2 2 2 2 3 4 3 3 3 3 3 3 3 3 3 3 3 3 3 3 3 4 4 4 5 5 5
1 1 1 2 2 1 1 1 1 1 1 1 1 1 1 1 1 2 2 2 2 2 2 2 2 2 2 2 2 3 3 4 5 5 5 4 4 4 4 4 4 4 4 4 4 4 4 4 4 4 4 4 5 5
2 2 2 2 2 2 2 2 2 1 1 1 1 1 1 1 2 2 3 2 2 2 2 2 2 3 3 3 4 4 5 5 5 6 6 6 5 5 5 5 5 5 5 5 5 5 5 5 5 5 5 5 5 5
2 2 2 3 3 2 2 2 2 2 2 2 1 1 1 1 2 3 3 3 3 2 2 3 3 4 4 5 5 5 6 6 6 6 6 6 6 6 6 6 6 6 6 6 6 6 5 5 5 5 5 5 6 6